map of SPI home
Great Circle Mapper logo
SPI - Airport
Location
City:  Springfield, Illinois, United States
Name:Abraham Lincoln Capital Airport
ICAO / IATA:KSPI / SPI
FAA:SPI

Details
Type:Airport (Part 139 Class I)
Use:Public/Civil
Latitude:3950'39"N (39.844222)
Longitude:8940'41"W (-89.678082)
Datum:WGS 1984
Elevation:597 ft (182 m)
Runways:3
Longest:8001 × 150 ft (2439 × 45.5 m), paved

Time
Time Zone:UTC-6 (DST-5)
Local Time:

Weather
METAR:KSPI 230052Z 11005KT 10SM CLR 08/04 A3023 RMK AO2 SLP239 T00830044
TAF:KSPI 222327Z 2300/2324 12005KT P6SM SKC
FM230800 14004KT P6SM SCT250
FM231200 16008KT P6SM SCT250
FM232100 18009KT P6SM VCSH SCT030 BKN050

Related Locations
Nearby:
Farthest:MGV: 11015 mi / 17728 km
Margaret River, WA, AU

Find:

   beyond  
but within

Other Information
Maps:
Delays:
NOTAMs:
Links:
Sources:

  
flag of United States
flag of Illinois
  

Airport Diagram

Airport diagram for SPI

Airport diagram PDF

Sectional Chart

Flight Planning
at skyvector.com

Satellite Image

Google Maps Satellite View

 

Copyright © 2004-2014 Karl L. Swartz. All rights reserved.
The Great Circle Mapper name and logo are trademarks of the Great Circle Mapper.
All other trademarks mentioned herein belong to their respective owners.
Please see credits for attibutions and further copyright information.

  Follow gcmap on Facebook Follow gcmap on Twitter

hCard Microformat

Geo Microformat